Russell, KS

8:34 AM CST on February 08, 2016 (GMT -0600)
Russell Municipal

Weather History for KRSL - July, 2013

Change the Weather History Date:

Thursday, July 4, 2013

  Actual Average Record
Temperature  
Mean Temperature 78 °F -  
Max Temperature 93 °F 91 °F 111 °F (1980)
Min Temperature 64 °F 66 °F 48 °F (1997)
Cooling Degree Days 12    
Growing Degree Days 28 (Base 50)    
Moisture  
Dew Point 49 °F    
Average Humidity 38    
Maximum Humidity 63    
Minimum Humidity 19    
Precipitation  
Precipitation 0.00 in - - ()
Sea Level Pressure  
Sea Level Pressure 29.88 in    
Wind  
Wind Speed 17 mph (SSE)    
Max Wind Speed 25 mph    
Max Gust Speed 34 mph    
Visibility 10 miles    
Events      
Averages and records for this station are not official NWS values.
T = Trace of Precipitation, MM = Missing Value Source: NWS Daily Summary

Daily Weather History Graph

Daily Weather History Graph

Search for Another Location

Airport or City:

Trip Planner

Search our weather history database for the weather conditions in past years. The results will help you decide how hot, cold, wet, or windy it might be!

Date:

Astronomy

Jul. 04, 2013 Rise Set
Actual Time 6:15 AM CDT 9:03 PM CDT
Civil Twilight 5:43 AM CDT 9:35 PM CDT
Nautical Twilight 5:03 AM CDT 10:15 PM CDT
Astronomical Twilight 4:18 AM CDT 11:00 PM CDT
Moon 3:32 AM CDT (7/4) 6:10 PM CDT (7/4)
Length of Visible Light 15h 51m
Length of Day
14h 48m
Waning Crescent, 11% of the Moon is Illuminated
Jul 4
Waning Crescent
Jul 8
New
Jul 15
First Quarter
Jul 22
Full
Jul 29
Last Quarter

Hourly Weather History & Observations

Time (CDT) Temp. Dew Point Humidity Pressure Visibility Wind Dir Wind Speed Gust Speed Precip Events Conditions
12:53 AM 70.0 °F 48.0 °F 46% 29.93 in 10.0 mi South 18.4 mph - N/A   Clear
1:53 AM 68.0 °F 48.0 °F 49% 29.93 in 10.0 mi South 13.8 mph - N/A   Clear
2:53 AM 68.0 °F 48.0 °F 49% 29.91 in 10.0 mi South 13.8 mph - N/A   Clear
3:53 AM 66.0 °F 48.0 °F 52% 29.91 in 10.0 mi SSE 16.1 mph - N/A   Clear
4:53 AM 64.9 °F 48.9 °F 56% 29.91 in 10.0 mi SSE 13.8 mph - N/A   Clear
5:53 AM 64.9 °F 50.0 °F 58% 29.92 in 10.0 mi SSE 15.0 mph - N/A   Partly Cloudy
6:53 AM 64.0 °F 51.1 °F 63% 29.92 in 10.0 mi SSE 12.7 mph - N/A   Clear
7:53 AM 68.0 °F 53.1 °F 59% 29.93 in 10.0 mi South 16.1 mph - N/A   Clear
8:53 AM 73.0 °F 52.0 °F 48% 29.94 in 10.0 mi South 19.6 mph - N/A   Clear
9:53 AM 79.0 °F 51.1 °F 38% 29.94 in 10.0 mi South 25.3 mph 34.5 mph N/A   Clear
10:53 AM 82.0 °F 51.1 °F 34% 29.93 in 10.0 mi South 21.9 mph 28.8 mph N/A   Clear
11:53 AM 86.0 °F 50.0 °F 29% 29.91 in 10.0 mi South 18.4 mph 31.1 mph N/A   Clear
12:53 PM 88.0 °F 48.9 °F 26% 29.89 in 10.0 mi South 23.0 mph 28.8 mph N/A   Clear
1:53 PM 90.0 °F 48.0 °F 24% 29.87 in 10.0 mi South 19.6 mph 32.2 mph N/A   Clear
2:53 PM 91.0 °F 48.0 °F 23% 29.85 in 10.0 mi South 17.3 mph 28.8 mph N/A   Partly Cloudy
3:53 PM 91.9 °F 44.1 °F 19% 29.83 in 10.0 mi SSE 17.3 mph - N/A   Partly Cloudy
4:53 PM 91.0 °F 44.1 °F 20% 29.83 in 10.0 mi South 18.4 mph 31.1 mph N/A   Partly Cloudy
5:53 PM 90.0 °F 44.1 °F 20% 29.82 in 10.0 mi South 17.3 mph 26.5 mph N/A   Clear
6:53 PM 90.0 °F 46.0 °F 22% 29.82 in 10.0 mi South 19.6 mph 26.5 mph N/A   Clear
7:53 PM 88.0 °F 46.0 °F 23% 29.81 in 10.0 mi South 16.1 mph - N/A   Clear
8:53 PM 82.9 °F 46.9 °F 28% 29.81 in 10.0 mi SSE 13.8 mph - N/A   Clear
9:53 PM 79.0 °F 48.0 °F 34% 29.83 in 10.0 mi North - - N/A   Clear
10:53 PM 77.0 °F 51.1 °F 40% 29.83 in 10.0 mi SSE 19.6 mph - N/A   Clear
11:53 PM 77.0 °F 52.0 °F 42% 29.84 in 10.0 mi SSE 17.3 mph - N/A   Clear